[[{"header":{"parameterUnit":"m.s-1","parameterCategory":1,"la1":30.2991,"la2":30.254,"lo1":-89.0895,"lo2":-89.0444,"dy":0.0017,"dx":0.0017,"nx":28,"ny":28,"refTime":"2023-11-15T09:00:00:Z","depth":0,"parameterNumber":2,"parameterNumberName":"U-component_of_WINDS"},"data":[0,0,0,0,0,0,0,0,0,0,0,0,0,0,0,0,0,0,0,0,0,0,0,0,0,0,0,0,0,0,0,0,0,0,0,0,0,0,0,0,0,0,0,0,0,0,0,0,0,0,0,0,0,0,0,0,0,0,-6.2104,-6.2105,0,-6.2236,-6.2237,-6.2239,-6.2113,-6.2108,-6.2103,-6.2098,-6.2237,-6.2245,-6.2254,0,0,0,0,0,0,0,0,0,0,0,0,0,-6.1746,-6.1753,-6.2104,-6.2105,-6.2107,-6.2236,-6.2237,-6.2239,-6.2113,-6.2107,-6.2101,-6.2095,-6.2234,-6.2244,-6.2254,0,0,0,0,0,0,0,0,0,0,0,0,0,-6.1892,-6.1756,-6.2103,-6.206,-6.2057,-6.2235,-6.2238,-6.224,-6.2115,-6.2107,-6.21,-6.2093,-6.2231,-6.2243,-6.2256,-6.2485,0,0,-6.2294,-6.23,0,0,0,0,0,0,0,0,-6.1884,-6.1906,-6.2064,-6.2063,-6.206,-6.215,-6.2162,-6.2322,-6.2117,-6.2093,-6.2098,-6.2089,-6.2215,-6.2228,-6.227,-6.2492,-6.2498,-6.2296,-6.2303,-6.2309,-6.2312,0,0,0,0,0,0,0,-6.1874,-6.1899,-6.2156,-6.2067,-6.2065,-6.2035,-6.2047,-6.2192,-6.2195,-6.2094,-6.2086,-6.2103,-6.2212,-6.2258,-6.2272,-6.25,-6.2295,-6.2306,-6.2314,-6.2319,-6.2919,-6.2927,0,0,0,0,0,0,-6.1868,-6.1892,-6.2152,-6.216,-6.1952,-6.2047,-6.2061,-6.2129,-6.2193,-6.2195,-6.2109,-6.2096,-6.224,-6.2257,-6.2276,-6.2551,-6.2308,-6.232,-6.2328,-6.291,-6.2921,-6.293,0,0,0,0,0,0,-6.1861,-6.1893,-6.2146,-6.2024,-6.2053,-6.2061,-6.2139,-6.2136,-6.2181,-6.2204,-6.2204,-6.2155,-6.2235,-6.2259,-6.2434,-6.2554,-6.2326,-6.2337,-6.2901,-6.2914,-6.2925,-6.31,0,0,0,0,0,0,-6.1852,-6.1891,-6.1977,-6.2026,-6.2061,-6.2302,-6.2146,-6.2144,-6.2203,-6.2187,-6.2247,-6.225,-6.223,-6.2416,-6.2447,-6.2567,-6.2347,-6.289,-6.2906,-6.2921,-6.3084,-6.3117,-6.3146,0,0,0,0,0,-6.1839,-6.2022,-6.1982,-6.2014,-6.2168,-6.2309,-6.2328,-6.2301,-6.2213,-6.23,-6.2315,-6.2248,-6.2535,-6.2435,-6.2469,-6.2594,-6.2882,-6.2902,-6.292,-6.307,-6.3111,-6.3145,0,0,0,0,0,0,-6.1988,-6.2027,-6.1984,-6.2188,-6.2246,-6.2287,-6.2397,-6.2345,-6.243,-6.2413,-6.2377,-6.2391,-6.2578,-6.2603,-6.2491,-6.2821,-6.2695,-6.2721,-6.2797,-6.2836,-6.2867,-6.2858,-6.2358,0,0,0,0,0,-6.2044,-6.2153,-6.2182,-6.236,-6.2391,-6.2389,-6.2449,-6.2423,-6.2482,-6.2507,-6.2534,-6.2595,-6.2699,-6.2769,-6.2866,-6.3086,-6.3099,-6.319,-6.322,-6.3246,-6.327,-6.3391,-6.3432,-6.2991,-6.2991,-6.2991,0,0,-6.2162,-6.2197,-6.2268,-6.239,-6.2432,-6.2548,-6.2411,-6.2538,-6.2624,-6.2526,-6.2694,-6.2717,-6.2783,-6.2983,-6.3072,-6.301,-6.3394,-6.327,-6.329,-6.33,-6.3414,-6.3456,-6.3493,-6.3004,-6.3002,-6.3,0,0,-6.2436,-6.2473,-6.2625,-6.267,-6.2734,-6.2732,-6.2769,-6.2818,-6.283,-6.2997,-6.2926,-6.3029,-6.3208,-6.3258,-6.3308,-6.3602,-6.3544,-6.3634,-6.3797,-6.3915,-6.395,-6.3981,-6.4088,-6.4126,-6.3658,-6.3658,-6.3659,0,-6.2574,-6.2745,-6.271,-6.2844,-6.29,-6.2815,-6.297,-6.3016,-6.311,-6.3152,-6.308,-6.3304,-6.3342,-6.3554,-6.3626,-6.3668,-6.371,-6.3628,-6.3947,-6.3978,-6.4006,-6.4108,-6.4148,-6.3669,-6.3668,-6.3667,-6.3666,0,-6.2913,-6.3032,-6.3148,-6.324,-6.3309,-6.3453,-6.3441,-6.3516,-6.3484,-6.349,-6.3663,-6.3706,-6.3811,-6.3859,-6.3829,-6.4067,-6.4027,-6.3952,-6.3825,-6.4059,-6.4154,-6.4193,-6.3684,-6.368,-6.3677,-6.3675,0,0,-6.3285,-6.3356,-6.3399,-6.3441,-6.3506,-6.3599,-6.3739,-6.384,-6.3906,-6.3974,-6.4092,-6.4246,-6.4178,-6.4234,-6.4209,-6.4313,-6.4546,-6.4226,-6.4227,-6.4286,-6.4814,-6.4871,-6.4916,-6.4507,-6.4514,-6.452,-6.4809,0,-6.3563,-6.3806,-6.3779,-6.4011,-6.4122,-6.4044,-6.4166,-6.4221,-6.423,-6.4327,-6.4337,-6.4448,-6.4348,-6.4382,-6.4481,-6.4497,-6.4652,-6.4475,-6.462,-6.4625,-6.4608,-6.4966,-6.5027,-6.5297,-6.4845,-6.4852,-6.4856,0,-6.3919,-6.3999,-6.4243,-6.4292,-6.4338,-6.4449,-6.454,-6.4633,-6.4694,-6.4693,-6.4756,-6.4714,-6.4857,-6.4726,-6.4924,-6.4804,-6.4862,-6.4879,-6.4889,-6.4903,-6.4756,-6.4992,-6.5382,-6.5424,-6.4914,-6.4909,-6.4905,0,-6.4169,-6.4337,-6.4505,-6.4543,-6.4604,-6.4684,-6.4714,-6.4767,-6.483,-6.4911,-6.4952,-6.5048,-6.5102,-6.5179,-6.5164,-6.507,-6.5368,-6.5234,-6.5373,-6.5374,-6.5441,-6.5438,-6.5849,-6.5475,-6.5474,-6.5474,-6.5473,0,-6.4483,-6.4636,-6.4618,-6.4722,-6.4891,-6.4859,-6.5028,-6.5048,-6.5096,-6.5203,-6.5141,-6.5243,-6.5217,-6.5319,-6.5309,-6.5476,-6.55,-6.5505,-6.5501,-6.5513,-6.5512,-6.5551,-6.5533,-6.5484,-6.5482,-6.548,-6.5478,0,-6.4792,-6.4786,-6.4964,-6.5007,-6.5022,-6.5145,-6.5183,-6.5282,-6.5285,-6.5422,-6.5453,-6.546,-6.5577,-6.557,-6.5702,-6.5695,-6.5902,-6.5875,-6.5882,-6.5876,-6.6017,-6.6005,-6.6469,-6.6529,-6.6115,-6.6118,-6.6122,0,-6.4994,-6.5109,-6.5165,-6.5232,-6.5267,-6.5375,-6.5439,-6.5413,-6.5482,-6.5561,-6.5651,-6.5762,-6.5849,-6.604,-6.6058,-6.616,-6.6136,-6.6292,-6.6151,-6.6159,-6.6141,-6.6135,-6.6148,-6.632,-6.6325,-6.6328,-6.6332,0,-6.5353,-6.5345,-6.5439,-6.5533,-6.5611,-6.5684,-6.5751,-6.581,-6.579,-6.5872,-6.599,-6.6058,-6.6193,-6.6305,-6.6402,-6.6433,-6.6382,-6.6375,-6.6413,-6.6427,-6.6427,-6.6431,-6.5959,-6.6365,-6.6362,-6.636,-6.6358,-6.6356,-6.5616,-6.5716,-6.5771,-6.5879,-6.5926,-6.599,-6.6085,-6.6101,-6.6198,-6.6305,-6.6284,-6.6418,-6.6477,-6.6601,-6.6643,-6.6748,-6.6692,-6.6747,-6.6761,-6.6776,-6.6793,-6.6409,-6.6765,-6.6764,-6.6763,-6.6762,-6.6762,0,-6.5974,-6.6006,-6.6105,-6.62,-6.6285,-6.6226,-6.6297,-6.6373,-6.6491,-6.655,-6.6637,-6.6774,-6.6882,-6.6909,-6.7014,-6.7093,-6.7072,-6.7122,-6.7117,-6.7126,-6.6835,-6.6793,-6.7138,-6.7138,-6.7137,-6.7137,-6.7137,-6.7137,-6.6171,-6.6337,-6.6336,-6.6525,-6.6555,-6.6685,-6.6731,-6.6791,-6.6837,-6.6993,-6.7082,-6.7098,-6.7146,-6.7253,-6.7351,-6.7356,-6.7399,-6.7459,-6.7455,-6.7184,-6.7146,-6.711,-6.707,-6.7468,-6.7468,-6.7737,-6.774,-6.7741]},{"header":{"parameterUnit":"m.s-1","parameterCategory":1,"la1":30.2991,"la2":30.254,"lo1":-89.0895,"lo2":-89.0444,"dy":0.0017,"dx":0.0017,"nx":28,"ny":28,"refTime":"2023-11-15T09:00:00:Z","depth":0,"parameterNumber":3,"parameterNumberName":"V-component_of_WINDS"},"data":[0,0,0,0,0,0,0,0,0,0,0,0,0,0,0,0,0,0,0,0,0,0,0,0,0,0,0,0,0,0,0,0,0,0,0,0,0,0,0,0,0,0,0,0,0,0,0,0,0,0,0,0,0,0,0,0,0,0,-4.6817,-4.6817,0,-4.68,-4.68,-4.68,-4.6697,-4.6695,-4.6692,-4.669,-4.6675,-4.6676,-4.6678,0,0,0,0,0,0,0,0,0,0,0,0,0,-4.6761,-4.6762,-4.6817,-4.6817,-4.6817,-4.68,-4.68,-4.68,-4.6698,-4.6695,-4.6692,-4.6689,-4.6674,-4.6676,-4.6678,0,0,0,0,0,0,0,0,0,0,0,0,0,-4.6769,-4.6763,-4.6817,-4.6764,-4.6759,-4.68,-4.68,-4.68,-4.6698,-4.6695,-4.6691,-4.6687,-4.6673,-4.6676,-4.6679,-4.6771,0,0,-4.6688,-4.6689,0,0,0,0,0,0,0,0,-4.6769,-4.6771,-4.6772,-4.6767,-4.6762,-4.6747,-4.6774,-4.679,-4.6699,-4.6721,-4.669,-4.6686,-4.6702,-4.6702,-4.6707,-4.677,-4.677,-4.6688,-4.669,-4.6691,-4.6692,0,0,0,0,0,0,0,-4.6768,-4.6771,-4.681,-4.6772,-4.6766,-4.6741,-4.6738,-4.6777,-4.6733,-4.6719,-4.6712,-4.6711,-4.6698,-4.6705,-4.6706,-4.677,-4.6688,-4.669,-4.6692,-4.6693,-4.6906,-4.691,0,0,0,0,0,0,-4.6775,-4.6772,-4.6811,-4.681,-4.6756,-4.6745,-4.6741,-4.6756,-4.6732,-4.6725,-4.6714,-4.6706,-4.6702,-4.6703,-4.6705,-4.6811,-4.6691,-4.6693,-4.6695,-4.6902,-4.6907,-4.6911,0,0,0,0,0,0,-4.6774,-4.678,-4.6812,-4.6789,-4.6791,-4.675,-4.6767,-4.6757,-4.6763,-4.6728,-4.672,-4.6729,-4.6699,-4.6701,-4.6755,-4.6809,-4.6695,-4.6697,-4.6897,-4.6903,-4.6909,-4.7023,0,0,0,0,0,0,-4.6773,-4.678,-4.6815,-4.679,-4.6792,-4.6862,-4.677,-4.676,-4.6768,-4.6758,-4.674,-4.6733,-4.6696,-4.6751,-4.6758,-4.6811,-4.67,-4.6892,-4.69,-4.6907,-4.7015,-4.7032,-4.7048,0,0,0,0,0,-4.6771,-4.6849,-4.6817,-4.6822,-4.6835,-4.6866,-4.6867,-4.6822,-4.6773,-4.6808,-4.6785,-4.6734,-4.6802,-4.6758,-4.6764,-4.6819,-4.6889,-4.6898,-4.6906,-4.7007,-4.7029,-4.7047,0,0,0,0,0,0,-4.6882,-4.6844,-4.6809,-4.6881,-4.6877,-4.6848,-4.689,-4.6847,-4.6857,-4.6847,-4.6792,-4.6788,-4.685,-4.684,-4.6791,-4.6906,-4.6836,-4.6847,-4.6911,-4.6931,-4.6947,-4.6949,-4.6702,0,0,0,0,0,-4.6914,-4.6942,-4.6908,-4.6974,-4.6974,-4.6933,-4.6944,-4.691,-4.6904,-4.6902,-4.6883,-4.688,-4.69,-4.6915,-4.6932,-4.7012,-4.7006,-4.7053,-4.7069,-4.7083,-4.7093,-4.7134,-4.7154,-4.694,-4.694,-4.694,0,0,-4.6982,-4.6965,-4.6986,-4.6996,-4.6989,-4.7018,-4.6932,-4.6968,-4.6989,-4.6908,-4.6957,-4.6943,-4.6935,-4.7003,-4.7031,-4.6996,-4.7151,-4.7094,-4.7106,-4.7108,-4.7145,-4.7165,-4.7183,-4.6946,-4.6945,-4.6944,0,0,-4.7121,-4.7111,-4.7164,-4.7158,-4.7148,-4.712,-4.7133,-4.711,-4.7097,-4.7146,-4.7085,-4.711,-4.7146,-4.7143,-4.7146,-4.7281,-4.7234,-4.7288,-4.7375,-4.7415,-4.7432,-4.7447,-4.7494,-4.7512,-4.7298,-4.7298,-4.7298,0,-4.7207,-4.7248,-4.7197,-4.7236,-4.7242,-4.7168,-4.7221,-4.7218,-4.7215,-4.7221,-4.718,-4.7223,-4.7213,-4.7278,-4.7311,-4.7316,-4.7329,-4.729,-4.7434,-4.7448,-4.7461,-4.7506,-4.7524,-4.7305,-4.7304,-4.7303,-4.7303,0,-4.7354,-4.7384,-4.7428,-4.7425,-4.7435,-4.7482,-4.7437,-4.7454,-4.7418,-4.7394,-4.7444,-4.7429,-4.744,-4.7453,-4.7419,-4.7513,-4.7491,-4.7443,-4.7372,-4.7489,-4.753,-4.7547,-4.7314,-4.7312,-4.731,-4.7308,0,0,-4.7564,-4.753,-4.7547,-4.7544,-4.7526,-4.7548,-4.759,-4.7601,-4.7616,-4.7616,-4.765,-4.7681,-4.7636,-4.764,-4.7604,-4.764,-4.7747,-4.7587,-4.7586,-4.7617,-4.7849,-4.7885,-4.7906,-4.7715,-4.7718,-4.7721,-4.7849,0,-4.7696,-4.7765,-4.772,-4.7797,-4.7823,-4.7752,-4.7788,-4.7782,-4.776,-4.7779,-4.7755,-4.7778,-4.7717,-4.7719,-4.7751,-4.7727,-4.7793,-4.7717,-4.7747,-4.7748,-4.7751,-4.7927,-4.7966,-4.8089,-4.7865,-4.7868,-4.787,0,-4.786,-4.7865,-4.7945,-4.792,-4.7929,-4.7963,-4.7968,-4.7987,-4.7977,-4.7959,-4.7962,-4.7917,-4.7957,-4.7886,-4.794,-4.789,-4.7899,-4.7889,-4.7892,-4.7894,-4.7817,-4.7934,-4.8126,-4.8145,-4.7895,-4.7893,-4.7891,0,-4.8005,-4.8031,-4.8081,-4.8081,-4.8054,-4.8079,-4.8069,-4.8055,-4.8064,-4.8068,-4.8073,-4.8083,-4.8089,-4.8097,-4.8056,-4.8009,-4.8115,-4.8041,-4.8101,-4.8102,-4.8127,-4.8126,-4.8324,-4.8133,-4.8133,-4.8132,-4.8132,0,-4.8158,-4.8209,-4.8146,-4.8177,-4.8232,-4.8178,-4.8234,-4.8217,-4.8205,-4.8231,-4.8171,-4.8197,-4.8141,-4.8162,-4.813,-4.8179,-4.8182,-4.8168,-4.8159,-4.8174,-4.8176,-4.8179,-4.817,-4.8137,-4.8136,-4.8135,-4.8134,0,-4.8329,-4.8289,-4.8339,-4.8308,-4.8301,-4.8343,-4.8316,-4.8344,-4.8317,-4.8351,-4.8356,-4.8315,-4.8336,-4.8295,-4.8311,-4.8289,-4.8358,-4.8336,-4.8361,-4.8355,-4.8417,-4.8412,-4.8624,-4.865,-4.8442,-4.8444,-4.8446,0,-4.843,-4.8467,-4.8439,-4.8452,-4.8444,-4.8466,-4.8474,-4.8422,-4.8433,-4.8423,-4.8452,-4.8467,-4.8477,-4.8514,-4.8486,-4.8497,-4.8475,-4.8548,-4.8476,-4.849,-4.8476,-4.8474,-4.8478,-4.8564,-4.8566,-4.8568,-4.857,0,-4.8612,-4.859,-4.8603,-4.8609,-4.8619,-4.8622,-4.862,-4.8634,-4.8579,-4.8594,-4.8614,-4.8621,-4.8636,-4.8652,-4.8657,-4.8647,-4.86,-4.8593,-4.8607,-4.8623,-4.8636,-4.863,-4.8402,-4.8588,-4.8586,-4.8585,-4.8584,-4.8583,-4.8751,-4.878,-4.8764,-4.8781,-4.8773,-4.8772,-4.8796,-4.8771,-4.8787,-4.8794,-4.8762,-4.8789,-4.8777,-4.8778,-4.8773,-4.8793,-4.8761,-4.8782,-4.8787,-4.8793,-4.8803,-4.8632,-4.8794,-4.8794,-4.8793,-4.8792,-4.8792,0,-4.893,-4.8916,-4.8931,-4.8929,-4.8942,-4.8894,-4.8889,-4.8903,-4.8927,-4.8919,-4.8929,-4.8952,-4.8967,-4.8939,-4.8949,-4.8971,-4.895,-4.8976,-4.8974,-4.8972,-4.8832,-4.8818,-4.8993,-4.8993,-4.8992,-4.8992,-4.8992,-4.8992,-4.9025,-4.9071,-4.9047,-4.9089,-4.9074,-4.9099,-4.91,-4.9099,-4.9092,-4.9119,-4.9131,-4.9112,-4.9096,-4.9104,-4.9116,-4.9107,-4.9114,-4.9148,-4.9132,-4.9002,-4.8982,-4.8963,-4.895,-4.915,-4.915,-4.927,-4.9271,-4.9272]}]]